Location: Peterborough
(44.3091°N, 78.3197°W)
Time: 19:06:29
(UTC-04:00)

Vanguard 2 Rocket - Pass Details

Date: 29 March 2023
Orbit: 554 x 3314 km, 32.9° (Epoch: 06 June)

Event Time Altitude Azimuth Distance (km) Brightness Sun altitude
Rises 23:00:06 0° 262° (W) 3,991 10.6 -33.0°
Reaches altitude 10° 23:02:38 10° 253° (WSW) 3,319 10.0 -33.3°
Enters shadow 23:08:38 35° 210° (SSW) 2,520 8.9 -34.0°
